EHI
20 8 0 0 0 0 0 0 0 0 0 0 0 0 0 0 0 0 0 0 0 0 0 0 0 0 0 0 0 0 0 0 0 0 0 0 0 0 0 0 0 0 0 0 0 1 2 2 1
10 4 0 0 0 0 0 0 0 0 0 0 0 0 0 0 0 0 0 0 0 0 0 0 0 0 0 0 0 0 0 0 0 0 0 0 0 0 0 0 0 0 0 0 0 0 1 1 0
4 1 0 0 0 0 0 0 0 0 0 0 0 0 0 0 0 1 2 1 0 0 0 0 0 0 0 0 0 0 0 0 0 0 0 0 0 0 0 0 0 0 0 0 0 0 0 0 0
2 1 0 0 0 0 0 0 0 0 0 0 0 0 0 0 1 3 4 2 0 0 0 0 0 0 0 0 0 0 0 0 0 0 0 0 0 0 0 0 0 0 0 0 0 0 0 0 0
0 0 0 0 0 0 0 0 0 0 0 0 0 0 0 0 2 4 4 2 1 0 0 0 0 0 0 0 0 0 0 0 0 0 0 0 0 0 0 0 0 0 0 0 0 0 0 0 0
0 0 0 0 0 0 0 0 0 0 0 0 0 0 0 0 3 5 5 3 1 0 0 0 0 0 0 0 0 0 0 0 0 0 0 0 0 0 0 0 0 0 0 0 0 0 0 0 0
0 0 0 0 0 0 0 0 0 0 0 0 0 0 0 0 2 5 6 3 1 0 0 0 0 0 0 0 0 0 0 0 0 0 0 0 0 0 0 0 0 0 0 0 0 0 0 0 0
0 0 0 0 0 0 0 0 0 0 0 0 0 0 0 0 2 4 5 3 1 0 0 0 0 0 0 0 0 0 0 0 0 0 0 0 0 0 0 0 0 0 0 0 0 0 0 0 0
0 0 0 0 0 0 0 0 0 0 0 0 0 0 0 1 2 4 3 1 0 0 0 0 0 0 0 0 0 0 0 0 0 0 0 0 0 0 0 0 0 0 0 0 0 0 0 0 0
0 0 0 0 0 0 0 0 0 0 0 0 0 0 0 1 2 3 2 1 0 0 0 0 0 0 0 0 0 0 0 0 0 0 0 0 0 0 0 0 0 0 0 0 0 0 0 0 0
0 0 0 0 0 0 0 0 0 0 0 0 0 0 0 0 1 1 1 0 0 0 0 0 0 0 0 0 0 0 0 0 0 0 0 0 0 0 0 0 0 0 0 0 0 0 0 0 0
0 0 0 0 0 0 0 0 0 0 0 0 0 0 0 0 0 0 0 0 0 0 0 0 0 0 0 0 0 0 0 0 0 0 0 0 0 0 0 0 0 0 0 0 0 0 0 0 0
0 0 0 0 0 0 0 0 0 0 0 0 0 0 0 0 0 0 0 0 0 0 0 0 0 0 0 0 0 0 0 0 0 0 0 0 0 0 0 0 0 0 0 0 0 0 0 0 0
0 0 0 0 0 0 0 0 0 0 0 0 0 0 0 0 0 0 0 0 0 0 0 0 0 0 0 0 0 0 0 0 0 0 0 0 0 0 0 0 0 0 0 0 0 0 0 0 0
0 0 0 0 0 0 0 0 0 0 0 0 0 0 0 0 0 0 0 0 0 0 1 2 2 2 2 1 0 0 0 0 0 0 0 0 0 0 0 0 0 0 0 0 0 0 0 0 0
0 0 0 0 0 0 0 0 0 0 0 0 0 0 0 0 0 0 0 0 0 0 3 6 7 7 6 4 1 0 0 0 0 0 0 0 0 0 0 0 0 0 0 0 0 0 0 0 0
0 0 0 0 0 0 0 0 0 0 0 0 0 0 0 0 0 0 0 0 0 1 4 8 11 13 13 11 6 2 1 0 0 0 0 0 0 0 0 0 0 0 0 0 0 0 0 0 0
0 0 0 0 0 0 0 0 0 0 0 0 0 0 0 0 0 0 0 0 0 1 3 6 10 17 24 25 19 12 8 4 1 0 0 0 0 0 0 0 0 0 0 0 0 0 0 0 0
0 0 0 0 0 0 0 0 0 0 0 0 0 0 0 0 0 0 1 2 2 2 3 5 11 24 39 46 39 28 18 9 3 1 0 0 0 0 0 0 0 0 0 0 0 0 0 0 0
0 0 0 0 0 0 0 0 0 0 0 0 0 0 0 0 0 0 2 4 5 6 8 13 26 46 63 69 60 40 22 10 5 3 1 0 0 0 0 0 0 0 0 0 0 0 0 0 0
0 0 0 0 0 0 0 0 0 0 0 0 0 0 0 0 1 3 7 9 12 16 22 33 52 72 84 86 79 57 30 14 7 4 1 0 0 0 0 0 0 0 0 0 0 0 0 0 0
0 0 0 0 0 0 0 0 0 0 0 0 0 0 0 0 4 12 19 23 28 36 44 54 70 82 85 82 76 62 39 18 7 3 1 0 0 0 0 0 0 0 0 0 0 0 0 0 0
0 0 0 0 0 0 0 0 0 0 0 0 0 0 0 1 9 23 34 40 48 56 58 60 63 63 59 52 46 39 26 13 4 1 0 0 0 0 0 0 0 0 0 0 0 0 0 0 0
0 0 0 0 0 0 0 0 0 0 0 0 0 0 0 3 16 33 44 52 59 60 53 45 39 33 25 19 17 15 11 5 1 0 0 0 0 0 0 0 0 0 0 0 0 0 0 0 0
0 0 0 0 0 0 0 0 0 0 0 0 0 0 0 4 16 32 43 50 54 48 35 25 18 13 8 5 5 5 4 2 1 0 0 0 0 0 0 0 0 0 0 0 0 0 0 0 0
0 0 0 0 0 0 0 0 0 0 0 0 0 0 0 3 11 22 31 37 37 29 19 12 8 5 3 2 1 1 1 1 0 0 0 0 0 0 0 0 0 0 0 0 0 0 0 0 0
0 0 0 0 0 0 0 0 0 0 0 0 0 0 0 2 7 14 18 20 19 13 9 5 3 1 0 0 0 0 0 0 0 0 0 0 0 0 0 0 0 0 0 0 0 0 0 0 0
0 0 0 0 0 0 0 0 0 0 0 0 0 0 0 2 5 8 9 9 7 4 2 1 0 0 0 0 0 0 0 0 0 0 0 0 0 0 0 0 0 0 0 0 0 0 0 0 0
0 0 0 0 0 0 0 0 0 0 0 0 0 0 0 0 1 2 2 2 2 1 0 0 0 0 0 0 0 0 0 0 0 0 0 0 0 0 0 0 0 0 0 0 0 0 0 0 0
0 0 0 0 0 0 0 0 0 0 0 0 0 0 0 0 0 0 0 0 0 0 0 0 0 0 0 0 0 0 0 0 0 0 0 0 0 0 0 0 0 0 0 0 0 0 0 0 0
Wind_Speed
6 3 3 2 5 5 1 1 3 3 4 5 8 11 8 5 4 4 4 13 15 13 10 12 14 13 12 12 12 12 12 12 12 12 13 13 12 12 11 10 10 10 10 10 10 10 10 9 9
3 1 3 3 5 3 1 1 4 4 7 9 8 8 7 5 4 7 6 14 16 14 10 10 14 13 12 12 12 12 12 12 12 13 13 13 12 11 10 10 10 10 10 9 9 10 10 10 9
3 1 2 3 2 3 2 4 5 3 6 7 5 4 6 6 5 5 10 16 14 12 10 11 15 14 13 12 12 12 12 12 12 12 12 12 12 11 10 10 10 10 10 9 9 9 9 9 8
2 4 4 4 2 4 5 5 4 4 5 6 7 6 4 4 5 9 17 16 14 12 10 11 15 14 13 12 12 12 12 11 11 12 12 12 11 10 10 9 9 9 9 9 8 8 8 8 7
3 4 5 3 4 3 2 2 3 5 4 4 8 6 4 3 11 18 17 15 14 11 9 10 15 14 13 12 12 12 12 11 11 12 12 12 11 10 10 9 9 9 9 8 8 7 7 5 5
4 5 4 3 6 4 1 2 5 7 8 7 8 6 3 4 10 14 16 13 13 12 10 9 14 14 13 12 12 12 12 12 12 12 12 12 11 10 10 9 8 8 8 8 8 6 5 3 3
4 4 2 2 6 4 2 4 7 8 7 6 9 7 4 4 8 12 13 12 12 11 10 7 7 9 12 12 12 12 12 12 12 12 12 12 11 10 9 9 8 8 9 9 8 6 4 1 2
5 5 2 2 5 5 2 1 5 8 6 8 7 9 7 8 9 11 12 11 10 9 9 8 6 6 6 7 12 12 12 12 12 12 12 12 11 10 9 8 8 9 9 9 7 6 3 1 1
4 5 2 2 4 7 5 1 1 4 5 4 4 6 12 15 12 12 10 7 9 9 8 8 7 6 6 6 9 10 12 12 12 10 13 10 5 4 5 6 8 9 9 8 6 4 3 1 2
4 4 4 3 5 7 9 4 2 5 5 5 7 10 16 15 14 14 13 12 11 11 10 9 8 8 7 7 5 4 4 5 5 4 6 4 4 3 5 7 9 8 8 6 5 3 1 1 2
4 5 6 7 10 8 6 5 1 7 4 9 16 18 17 15 14 15 15 14 14 13 13 12 10 9 8 5 5 3 3 3 4 5 5 4 3 3 3 2 3 3 4 2 1 1 1 1 1
2 5 6 7 9 6 5 3 1 3 7 14 20 23 20 17 16 16 16 14 12 12 13 13 13 11 9 8 6 5 4 4 4 5 6 4 3 3 3 2 2 2 2 2 1 1 2 2 2
2 3 3 3 4 5 5 3 2 3 3 14 17 19 20 19 16 15 15 14 12 13 13 14 14 13 11 9 7 7 6 6 5 5 6 6 5 5 4 3 3 3 2 2 2 1 2 3 4
4 5 6 5 4 3 4 6 2 4 1 11 16 17 18 18 17 14 13 13 13 14 14 14 15 14 12 9 8 7 7 6 5 5 7 8 6 6 5 4 4 4 4 3 2 2 3 4 5
4 5 7 5 5 4 3 5 3 6 3 6 11 13 14 15 15 16 17 16 16 16 15 15 15 14 14 12 10 8 7 7 6 6 7 9 8 8 7 5 5 5 4 3 2 3 3 5 5
4 4 3 4 7 7 1 6 4 6 4 2 5 8 10 12 14 15 17 16 15 14 15 16 15 15 14 11 10 7 7 6 5 5 5 8 9 10 8 6 6 6 4 3 4 4 3 4 4
4 2 3 4 4 4 2 5 6 5 4 2 4 7 9 10 11 12 16 17 16 16 16 16 14 15 14 11 8 6 6 6 5 4 4 6 7 8 8 7 6 6 4 4 5 3 4 4 4
2 3 4 4 4 3 2 6 8 6 5 5 5 6 7 9 10 12 16 17 16 15 15 15 12 13 11 7 5 4 4 4 4 4 5 6 5 5 6 5 7 6 5 4 4 5 3 4 4
3 4 5 5 4 2 4 7 9 7 6 7 6 6 7 10 9 7 12 15 14 13 12 12 10 10 8 6 5 5 5 4 4 5 6 6 5 4 4 4 6 6 6 7 7 4 4 3 3
3 4 5 5 3 4 6 9 9 8 7 7 8 8 9 9 6 5 9 12 13 12 11 10 9 9 9 7 5 3 3 3 3 4 5 6 5 5 5 5 5 6 5 6 6 5 4 2 2
5 5 5 6 3 2 4 8 7 6 5 6 7 8 9 12 10 9 9 9 11 10 10 9 8 8 8 8 5 4 3 2 2 3 4 6 5 5 5 6 5 5 5 6 6 7 7 5 2
6 7 6 3 1 4 2 6 8 7 7 7 9 8 8 10 11 11 11 11 12 10 8 9 9 9 8 8 7 7 5 4 5 4 4 5 5 5 6 6 6 6 5 6 7 6 5 7 4
6 3 2 1 1 2 2 3 8 7 10 13 13 11 7 5 9 12 12 12 12 11 9 8 8 8 7 7 7 6 4 3 3 2 4 4 4 5 6 6 6 6 5 6 6 5 5 5 5
2 4 5 4 4 2 4 3 5 6 10 16 18 17 12 3 6 9 9 10 11 11 9 7 7 6 6 7 6 6 6 4 4 3 3 3 2 3 5 6 6 5 5 6 6 6 7 6 6
6 5 4 4 2 6 3 2 1 7 11 13 16 17 15 10 4 9 10 10 10 11 10 7 7 6 5 6 5 4 5 4 4 4 4 3 2 2 4 4 5 4 5 6 6 6 6 7 7
4 3 4 4 4 4 3 2 3 6 9 13 15 16 16 15 11 5 5 7 8 10 9 8 7 6 5 4 3 3 4 3 2 3 3 3 2 2 3 4 4 5 5 6 6 5 6 6 7
5 2 2 3 2 3 4 0 2 10 14 17 17 18 17 14 12 10 6 3 5 8 7 8 7 5 4 3 2 3 4 4 4 3 3 2 2 2 3 3 3 3 4 5 5 5 6 6 7
4 2 3 2 1 3 3 3 6 14 14 14 15 14 13 13 12 11 9 6 2 2 4 6 6 5 4 4 3 3 4 5 4 4 3 3 2 2 3 3 3 2 2 2 3 3 4 6 6
6 4 3 1 1 1 0 3 6 9 10 10 10 10 9 10 9 8 6 6 6 3 3 5 6 5 4 4 3 4 4 4 4 4 3 3 3 3 3 3 3 2 2 1 2 2 3 4 5
3 2 1 1 1 1 2 1 7 9 9 8 9 9 8 6 4 4 5 8 8 5 4 4 5 5 5 5 5 5 4 4 4 3 3 4 4 3 3 3 3 3 2 2 2 2 2 3 3
Wind_Direction
281 283 120 91 52 48 98 208 136 82 62 68 86 92 95 90 115 145 140 151 141 149 159 159 158 153 146 140 134 131 130 130 130 128 125 121 117 114 109 105 100 96 91 88 87 89 93 96 97
303 312 104 65 73 64 347 175 114 114 128 118 95 99 94 83 101 109 118 144 144 149 153 157 159 156 151 146 141 136 134 133 133 132 130 128 125 121 117 113 110 106 102 96 93 91 92 93 93
289 243 79 62 90 167 173 198 160 134 128 124 100 75 94 122 119 119 141 142 143 148 150 158 158 157 155 152 146 141 139 137 136 136 136 135 131 126 122 120 116 112 110 105 99 95 92 92 93
21 43 52 58 280 223 184 202 173 121 85 89 100 67 66 131 138 130 141 145 145 148 150 158 157 158 158 156 152 148 146 144 141 140 141 140 137 132 127 123 121 118 115 111 105 98 94 90 87
74 68 49 6 286 259 211 192 145 124 110 90 94 84 48 57 117 132 145 147 144 146 151 159 158 160 160 160 158 155 153 151 148 146 144 144 142 138 132 127 127 126 122 118 116 108 101 92 81
56 61 61 328 295 287 297 82 81 90 108 110 104 105 100 129 128 139 145 146 143 147 152 156 160 160 161 162 162 160 158 157 155 150 149 149 147 143 136 133 134 132 128 128 126 120 113 99 71
95 82 90 286 290 287 199 121 104 118 142 148 132 104 121 153 142 140 140 142 143 147 150 149 156 159 163 163 163 161 160 159 157 154 154 153 150 147 142 140 142 139 136 137 139 142 138 116 42
119 101 106 290 290 284 286 114 131 128 142 142 127 131 157 178 146 134 137 141 143 147 152 153 152 153 154 160 163 162 161 161 161 159 158 157 155 152 149 148 152 148 146 147 152 158 159 177 339
87 88 146 275 300 292 307 358 104 98 113 120 122 143 154 154 141 133 137 141 150 156 160 161 161 157 152 156 167 163 163 165 163 162 163 156 143 143 148 160 164 158 156 155 160 168 170 175 351
90 124 179 201 244 265 292 288 156 91 85 77 83 108 141 150 151 151 156 164 168 169 172 170 169 165 161 166 147 148 155 156 152 155 153 142 146 162 166 180 174 172 169 167 173 190 231 25 18
142 171 189 203 229 252 271 283 175 127 148 162 149 150 158 162 165 167 171 176 178 176 175 175 174 170 169 156 149 150 147 152 158 162 156 151 157 172 165 177 183 185 181 170 195 232 274 295 5
229 219 199 217 221 228 243 284 332 181 190 175 162 161 166 172 176 177 179 183 180 177 179 176 174 172 171 161 164 164 163 172 175 179 170 158 162 166 174 184 193 201 204 202 213 215 233 228 183
277 275 272 262 247 240 251 252 251 269 184 164 164 166 175 181 184 185 183 182 178 181 180 175 171 171 171 165 170 173 177 185 187 182 180 174 171 175 184 193 201 213 214 210 218 219 183 153 138
268 298 296 289 307 310 276 268 258 277 222 163 172 180 185 188 187 183 184 184 181 184 182 176 172 171 170 173 176 177 182 186 188 187 186 183 180 181 185 193 203 219 217 207 194 180 136 122 123
320 329 325 340 345 317 293 280 264 297 312 178 186 195 198 199 190 187 187 185 183 184 182 179 177 173 174 178 180 179 183 183 189 193 190 184 182 187 188 192 200 217 219 192 157 147 122 115 120
346 354 325 334 0 334 315 251 280 335 348 228 212 216 216 216 205 195 187 184 180 179 181 182 182 179 180 181 183 180 181 180 188 192 190 188 186 189 189 192 198 205 203 173 156 147 126 122 127
10 340 300 311 358 348 20 270 294 320 344 300 246 234 232 229 220 201 187 183 179 179 180 184 184 180 183 181 180 174 171 176 177 180 187 192 191 189 187 193 195 188 183 176 166 151 140 137 139
267 286 291 296 311 332 317 281 290 294 298 283 265 249 240 235 227 201 187 181 178 179 180 184 184 179 175 167 158 149 158 169 169 186 195 196 192 191 191 199 194 179 173 176 164 152 144 145 151
206 243 270 268 260 274 268 274 280 278 275 278 278 265 253 242 238 204 183 176 174 176 177 178 178 173 162 157 157 159 175 179 183 202 204 202 194 190 187 201 195 183 181 178 160 144 139 133 124
218 251 267 276 261 272 271 272 268 254 246 251 259 261 253 252 243 206 177 170 170 172 172 170 170 163 163 161 158 158 157 175 190 202 208 209 203 189 185 190 199 190 180 172 161 147 135 140 141
245 233 238 255 303 319 314 304 295 287 273 279 274 265 247 228 213 196 172 159 151 152 161 162 155 147 144 141 131 117 100 93 148 213 220 218 207 190 182 182 190 194 180 181 176 161 148 154 166
252 243 224 239 332 302 343 299 297 309 323 325 311 291 262 225 195 178 162 149 140 137 139 137 132 128 132 137 142 149 161 175 194 196 209 214 201 191 184 183 185 185 185 186 189 172 157 150 162
229 230 194 184 170 305 298 248 294 346 348 339 335 332 320 232 178 163 155 146 135 130 123 123 121 124 131 136 144 145 153 174 176 179 201 214 206 193 187 186 184 183 184 189 189 177 167 163 165
52 46 37 49 77 288 249 207 303 1 353 348 351 352 353 7 138 130 124 124 119 115 108 110 121 127 134 137 143 151 160 165 166 186 200 210 205 191 187 187 190 188 184 187 189 185 181 187 178
26 56 11 346 352 251 240 186 52 5 10 7 360 359 3 13 70 122 128 130 128 123 126 144 146 147 146 143 151 164 172 176 190 199 200 194 191 191 193 185 191 192 192 191 185 188 196 194 189
301 157 182 231 238 276 289 203 106 10 10 13 12 6 11 20 18 38 110 128 132 131 145 153 156 154 152 149 168 188 179 169 188 190 178 183 189 198 182 178 188 194 193 193 190 196 202 200 201
337 334 193 173 238 258 277 95 60 7 12 12 10 11 11 11 18 22 21 67 125 139 162 158 156 154 159 162 168 179 167 159 163 161 156 160 168 165 147 150 163 182 190 193 191 205 210 205 206
20 357 50 93 207 245 311 36 4 352 353 358 2 2 3 8 12 19 12 2 360 154 164 156 158 167 170 163 161 156 151 151 150 138 140 144 149 138 134 132 135 140 155 173 187 204 212 211 215
7 25 27 121 155 156 41 46 1 336 331 337 340 344 353 5 7 8 357 314 285 256 203 171 175 174 170 160 148 143 147 147 144 142 152 156 157 158 158 157 151 146 143 140 154 188 194 205 214
75 48 47 116 79 92 127 78 340 331 326 327 331 333 336 344 342 312 276 261 267 269 246 211 192 183 179 164 150 157 158 155 156 166 178 172 173 179 177 171 164 166 168 164 164 187 194 199 207